Miscellaneous Local Product
Issued by NWS Hastings, NE

Home | Current Version | Previous Version | Graphics & Text | Print | Product List | Glossary On
Versions: 1 2 3 4 5 6 7 8 9 10 11 12 13 14 15 16 17 18 19 20 21 22 23 24 25 26 27 28 29 30 31 32 33 34 35 36 37 38 39 40 41 42 43 44 45 46 47 48 49 50
000
AXUS43 KGID 270202
MISGRI

GID CWA HOURLY WEATHER ROUNDUP
NATIONAL WEATHER SERVICE HASTINGS NE
900 PM CDT FRI AUG 26 2016

NOTE: "FAIR" INDICATES FEW OR NO CLOUDS BELOW 12,000 FEET WITH NO
SIGNIFICANT WEATHER AND/OR OBSTRUCTIONS TO VISIBILITY.

...SOUTH CENTRAL NEBRASKA...

CITY           SKY/WX    TMP DP  RH WIND       PRES   REMARKS
GRAND ISLAND   CLOUDY    65  63  93 SE7       30.07R
HASTINGS       CLOUDY    65  63  93 E6        30.08R
KEARNEY        PTCLDY    66  61  82 SE10      30.05S
ORD            CLOUDY    65  57  75 SE10      30.02S
YORK           CLOUDY    64  64 100 E6        30.07R FOG
AURORA         CLOUDY    64  64 100 E5        30.06R FOG
LEXINGTON      CLOUDY    66  62  87 S8        30.03F
HOLDREGE       CLOUDY    65  60  85 SE8       30.05F
HEBRON         CLOUDY    68  65  92 N3        30.05R

...NEBRASKA PANHANDLE...

CITY           SKY/WX    TMP DP  RH WIND       PRES   REMARKS
CHADRON        CLEAR     64  52  64 S8        29.99S
ALLIANCE       PTCLDY    58  54  86 SE7       30.03F
SCOTTSBLUFF    CLOUDY    60  55  83 SE6       30.03S
SIDNEY         CLOUDY    57  53  86 SE8       30.08R

...WESTERN AND NORTH CENTRAL NEBRASKA...

CITY           SKY/WX    TMP DP  RH WIND       PRES   REMARKS
VALENTINE      CLOUDY    60  57  89 E3        30.04S
AINSWORTH      CLOUDY    61  55  78 SE6       30.04S
ONEILL         MOCLDY    66  57  72 E6        30.06R
BROKEN BOW     CLOUDY    62  59  90 SE8       30.03S
IMPERIAL       CLOUDY    59  57  93 CALM      30.06S
NORTH PLATTE   CLOUDY    63  59  87 CALM      30.04R
MCCOOK         LGT RAIN  60  57  89 E20       30.02F

...EASTERN NEBRASKA...

CITY           SKY/WX    TMP DP  RH WIND       PRES   REMARKS
NORFOLK        CLOUDY    63  60  90 SE10      30.06R
SO SIOUX CITY  CLOUDY    68  61  78 SE9       30.07R
TEKAMAH        CLOUDY    65  61  87 N3        30.07R
COLUMBUS       CLOUDY    63  55  77 E6        30.06F
ALBION         DRIZZLE   64  61  91 SE7       30.06R
OMAHA EPPLEY   CLOUDY    68  62  81 NE9       30.06R
OFFUTT AFB     MOCLDY    68  65  92 NE5       30.05R
MILLARD        CLOUDY    69  64  83 E5        30.06R
LINCOLN        LGT RAIN  69  65  86 E8        30.07R
NEBRASKA CITY  CLOUDY    67  67 100 N5        30.04S
BEATRICE       CLOUDY    68  66  94 E8        30.03S
FALLS CITY     PTCLDY    70  69  97 CALM      30.02R

...NORTHERN KANSAS...

CITY           SKY/WX    TMP DP  RH WIND       PRES   REMARKS
GOODLAND       CLOUDY    59  50  72 CALM      30.07S
HILL CITY      CLOUDY    68  63  84 E8        30.03F
SMITH CENTER   CLOUDY    66  63  88 CALM      30.05S
BELOIT         MOCLDY    66  64  94 N3        30.03R
HAYS           CLEAR     72  59  64 E7        30.03R
RUSSELL        CLEAR     68  66  93 E9        30.02R
CONCORDIA      PTCLDY    70  65  84 CALM      30.04R
SALINA         CLEAR     76  68  76 NE3       30.03R
TOPEKA         CLOUDY    72  69  90 NE3       30.00R



USA.gov is the U.S. government's official web portal to all federal, state and local government web resources and services.